STARLINK-3797, 52337

Orbit data source: Space-Track

STARLINK-3797, 52337 is a payload satellite owned by SpaceX/Seattle (US) in LEO that was launched on Fri, 29 Apr 2022 UTC via an FALCON 9 launch vehicle from the Air Force Eastern Test Range (AFETR). Payload-class satellites include a variety of spacecraft equipped with specific instruments for various scientific and technological missions. These include communications satellites like Starlink; space stations such as the ISS; scientific satellites like the Hubble; Earth observation satellites from companies like Planet Labs, Umbra, and HawkEye 360; GPS; miniature CubeSats for education and research; and military/defense satellites.

Loading next visibility...
Identifier
52337, 2022-045G
Orbit
LEO
Country
Flag of USUS
Related business
Manufacturer
SpaceX/Seattle
Mission
Operational Commercial Communications
Bus & Motor
STARLINK, Unknown motor
Mass
297 kg wet, ~275 kg dry
Launch date (UTC)
2022-04-29 (4 years ago)
Launch vehicle
FALCON 9
Launch site
Air Force Eastern Test Range (AFETR)
Object type
Payload
Rocket body
Debris
Shape & HBR
Box + 1 Pan, 10.1 m
Radar Cross Section
11.087 m², Large (>1 m²)

Expand to show TLE details & history
Last TLE update: 3 days ago

TLE from 3 days ago
0 STARLINK-3797
1 52337U 22045G   26170.85963584  .00000371  00000-0  41411-4 0  9993
2 52337  53.1608 110.3527 0001442  90.4257 269.6899 15.08830557231065
Epoch: 2026-06-19T20:37Z
TLE epoch observation values (Epoch: 2026-06-19T20:37:52.536Z)
Latitude
-0.00008°
Longitude
-107.19882°
Altitude
540.669 km
Speed
7.593 km/s
True Right ascension
07h 21m 24s
True Declination
0° 00' 00"
Sunlit
Object was in daylight at epoch
Visualization orbit readout
Latitude
Unknown
Longitude
Unknown
Altitude
Unknown
Speed
Unknown
Apparent Right ascension
Unknown
Apparent Declination
Unknown
Sunlit
N/A
Visualization observer readout
Local Sidereal Time
21:43:16
Azimuth
Unknown
Elevation
Unknown
Doppler factor
Unknown
Orbital elements
Apogee altitude
541.024 km
Perigee altitude
539.029 km
Semi-major axis
6,918.163 km
Eccentricity
0.00014
Inclination
53.1608°
RAAN
110.3527°
Arg. of periapsis
90.4257°
True anomaly
269.67338°
Mean anomaly
269.6899°
Eccentric anomaly
269.68164°
Mean motion
3.77187 °/min
Orbital period
95.44 mins
BSTAR
0.000041411
Loading maneuver chart data...
Computing Atmospheric mass density...
Loading historical data...
Loading historical data...
Loading historical data...
Loading historical data...
Loading historical data...
Loading historical data...
Loading historical data...

Documentation

Showing up to 5 results
|